1329523233235,96.5552
1329523293235,96.6735
1329523353235,96.6102
1329523413235,96.0776
1329523473235,96.5948
1329523533235,96.7028
1329523593235,96.1013
1329523653235,96.5398
1329523713235,96.2627
1329523773235,96.5322
1329523833235,96.6929
1329523893235,95.9583
1329523953235,96.0798
1329524013235,95.8094
1329524073235,96.1999
1329524133235,96.4826
1329524193235,96.2622
1329524253235,96.2840
1329524313235,96.0997
1329524373235,96.3068
1329524433235,95.8018
1329524493235,95.8871
1329524553235,95.8592
1329524613235,96.0941
1329524673235,95.8377
1329524733235,95.5473
1329524793235,95.9018
1329524853235,96.1184
1329524913235,95.8628
1329524973235,96.2666
1329525033235,96.0805
1329525093235,95.8791
1329525153235,95.7930
1329525213235,95.9515
1329525273235,96.0313
1329525333235,96.0826
1329525393235,95.5990
1329525453235,96.4906
1329525513235,95.8547
1329525573235,95.9107
1329525633235,96.0993
1329525693235,96.2514
1329525753235,95.8137
1329525813235,95.8887
1329525873235,96.1923
1329525933235,96.0451
1329525993235,95.7854
1329526053235,96.2179
1329526113235,95.6233
1329526173235,95.5508
1329526233235,95.5176
1329526293235,96.1912
1329526353235,95.7743
1329526413235,95.8175
1329526473235,96.0219
1329526533235,95.5097
1329526593235,95.3784
1329526653235,96.0063
1329526713235,95.7630
1329526773235,96.3460
1329526833245,95.7679
1329526893245,95.8952
1329526953245,95.4654
1329527013245,95.5757
1329527073245,95.6052
1329527133245,95.4029
1329527193245,95.7063
1329527253245,95.9267
1329527313245,96.0616
1329527373245,95.7741
1329527433245,95.8698
1329527493245,95.7774
1329527553245,95.2359
1329527613245,95.4740
1329527673245,95.0153
1329527733245,95.5859
1329527793245,95.7244
1329527853245,95.5855
1329527913245,95.8649
1329527973245,95.3529
1329528033245,95.9481
1329528093245,95.4790
1329528153245,96.0104
1329528213245,95.7454
1329528273245,95.7177
1329528333245,95.7806
1329528393245,95.9628
1329528453245,95.6384
1329528513245,95.4997
1329528573245,96.1299
1329528633245,95.7260
1329528693245,95.4190
1329528753245,95.8024
1329528813245,95.7615
1329528873245,95.6634
1329528933245,95.7309
1329528993245,95.9595
1329529053245,95.8625
1329529113245,95.4252
1329529173245,96.1965
1329529233245,95.4418
1329529293245,95.4676
1329529353245,95.4532
1329529413245,95.9526
1329529473245,95.9908
1329529533245,95.6335
1329529593245,95.3368
1329529653245,95.3909
1329529713245,96.2203
1329529773245,95.9091
1329529833245,96.2946
1329529893245,95.7159
1329529953245,96.2832
1329530013245,95.7191
1329530073245,95.8633
1329530133245,95.6400
1329530193245,95.7412
1329530253245,96.0841
1329530313245,95.5090
1329530373245,95.9220
1329530433256,95.8623
1329530493256,96.1619
1329530553256,96.0135
1329530613256,96.0668
1329530673256,95.6753
1329530733256,95.5981
1329530793256,95.8600
1329530853256,95.3271
1329530913256,95.6678
1329530973256,96.0561
1329531033256,95.9801
1329531093256,95.5786
1329531153256,95.9329
1329531213256,95.5944
1329531273256,95.6857
1329531333256,95.4481
1329531393256,96.1786
1329531453256,95.8468
1329531513256,96.4450
1329531573256,95.4238
1329531633256,95.7396
1329531693256,96.4106
1329531753256,96.0909
1329531813256,95.6876
1329531873256,95.6273
1329531933256,96.1401
1329531993256,96.0005
1329532053256,95.8564
1329532113256,96.0801
1329532173256,95.9751
1329532233256,96.3953
1329532293256,96.3214
1329532353256,96.1138
1329532413256,96.0508
1329532473256,95.9464
1329532533256,95.9127
1329532593256,95.8465
1329532653256,95.9774
1329532713256,96.0958
1329532773256,95.8942
1329532833256,95.9688
1329532893256,96.2635
1329532953256,95.9243
1329533013256,96.0374
1329533073256,96.2576
1329533133256,95.9950
1329533193256,96.4196
1329533253256,96.2904
1329533313256,95.9351
1329533373256,95.6255
1329533433256,95.7690
1329533493256,95.9337
1329533553256,96.2596
1329533613256,96.5582
1329533673256,96.0202
1329533733256,96.3317
1329533793256,95.5690
1329533853256,96.3051
1329533913256,96.3706
1329533973256,96.0201
1329534033267,96.1613
1329534093267,96.3329
1329534153267,96.3956
1329534213267,96.3384
1329534273267,96.2640
1329534333267,95.9550
1329534393267,96.0728
1329534453267,96.0548
1329534513267,96.6447
1329534573267,96.7808
1329534633267,96.5826
1329534693267,95.6861
1329534753267,96.0291
1329534813267,96.3149
1329534873267,96.2174
1329534933267,96.0992
1329534993267,96.1500
1329535053267,96.0624
1329535113267,96.5414
1329535173267,96.1919
1329535233267,96.2826
1329535293267,96.0969
1329535353267,96.1303
1329535413267,96.1226
1329535473267,96.6585
1329535533267,96.0826
1329535593267,96.9336
1329535653267,96.2408
1329535713267,96.4064
1329535773267,96.3116
1329535833267,96.1237
1329535893267,96.3713
1329535953267,96.3889
1329536013267,95.8155
1329536073267,96.4098
1329536133267,96.1697
1329536193267,96.0839
1329536253267,96.5538
1329536313267,96.0648
1329536373267,96.1995
1329536433267,96.2653
1329536493267,96.1999
1329536553267,95.6876
1329536613267,95.9919
1329536673267,96.3195
1329536733267,95.7137
1329536793267,95.7378
1329536853267,96.5830
1329536913267,96.3676
1329536973267,95.8387
1329537033267,96.0097
1329537093267,96.4873
1329537153267,95.9696
1329537213267,96.0099
1329537273267,96.3275
1329537333267,95.7439
1329537393267,95.9365
1329537453267,95.9515
1329537513267,96.4222
1329537573267,96.0203
1329537633278,96.3410
1329537693278,96.0535
1329537753278,96.5040
1329537813278,96.6405
1329537873278,96.0159
1329537933278,96.2141
1329537993278,97.9564
1329538053278,96.1549
1329538113278,96.2656
1329538173278,96.2248
1329538233278,96.5187
1329538293278,95.9747
1329538353278,95.8650
1329538413278,95.8121
1329538473278,96.2561
1329538533278,95.6114
1329538593278,96.2064
1329538653278,96.0873
1329538713278,96.2262
1329538773278,96.4808
1329538833278,96.4134
1329538893278,96.2000
1329538953278,95.6984
1329539013278,95.9716
1329539073278,96.1771
1329539133278,95.9765
1329539193278,96.2559
1329539253278,96.4826
1329539313278,96.1400
1329539373278,96.0231
1329539433278,96.0602
1329539493278,96.1681
1329539553278,96.0908
1329539613278,95.9863
1329539673278,96.0756
1329539733278,96.0215
1329539793278,96.1853
1329539853278,95.9532
1329539913278,95.9529
1329539973278,96.0364
1329540033278,95.8779
1329540093278,95.8298
1329540153278,95.8928
1329540213278,96.0526
1329540273278,96.0395
1329540333278,95.3831
1329540393278,95.7693
1329540453278,96.1271
1329540513278,96.0030
1329540573278,95.9249
1329540633278,96.4564
1329540693278,95.9130
1329540753278,96.1240
1329540813278,96.4251
1329540873278,96.1328
1329540933278,95.8539
1329540993278,95.8196
1329541053278,95.9652
1329541113278,95.9310
1329541173278,95.8595
1329541233289,95.9790
1329541293289,96.0159
1329541353289,95.6689
1329541413289,95.6797
1329541473289,95.9281
1329541533289,95.5964
1329541593289,95.6321
1329541653289,95.7325
1329541713289,95.7302
1329541773289,95.4355
1329541833289,95.7980
1329541893289,96.1121
1329541953289,96.1469
1329542013289,96.5221
1329542073289,96.3177
1329542133289,95.8445
1329542193289,96.0913
1329542253289,95.9408
1329542313289,95.9054
1329542373289,95.4785
1329542433289,96.1017
1329542493289,95.7568
1329542553289,95.3983
1329542613289,95.8447
1329542673289,95.9077
1329542733289,95.6199
1329542793289,95.6535
1329542853289,95.7351
1329542913289,95.7754
1329542973289,95.8288
1329543033289,95.5454
1329543093289,96.0478
1329543153289,95.9543
1329543213289,95.7184
1329543273289,95.8907
1329543333289,96.3005
1329543393289,95.6886
1329543453289,95.7210
1329543513289,95.6833
1329543573289,95.3295
1329543633289,95.4759
1329543693289,95.5965
1329543753289,95.9974
1329543813289,95.9452
1329543873289,95.9535
1329543933289,96.1399
1329543993289,95.5367
1329544053289,95.5992
1329544113289,95.5283
1329544173289,95.5034
1329544233289,95.6255
1329544293289,95.7373
1329544353289,95.4546
1329544413289,95.4557
1329544473289,95.7461
1329544533289,95.5002
1329544593289,95.6684
1329544653289,95.5401
1329544713289,95.6155
1329544773289,95.7325
1329544833301,96.1176
1329544893301,95.4232
1329544953301,95.4307
1329545013301,95.7082
1329545073301,95.5113
1329545133301,95.7290
1329545193301,95.7644
1329545253301,95.8905
1329545313301,95.4643
1329545373301,95.6751
1329545433301,95.2145
1329545493301,95.3536
1329545553301,95.7417
1329545613301,95.8480
1329545673301,95.5519
1329545733301,95.3477
1329545793301,95.8433
1329545853301,95.6252
1329545913301,95.4697
1329545973301,95.8293
1329546033301,95.0730
1329546093301,95.4302
1329546153301,95.8111
1329546213301,95.3342
1329546273301,95.6510
1329546333301,95.9924
1329546393301,95.5445
1329546453301,95.6519
1329546513301,95.2557
1329546573301,95.0857
1329546633301,95.4180
1329546693301,95.4877
1329546753301,95.3387
1329546813301,95.8091
1329546873301,95.5760
1329546933301,95.1635
1329546993301,95.6081
1329547053301,95.8976
1329547113301,95.2656
1329547173301,95.5244
1329547233301,95.6094
1329547293301,95.4780
1329547353301,95.4703
1329547413301,95.3167
1329547473301,95.5471
1329547533301,95.6021
1329547593301,95.8166
1329547653301,95.5431
1329547713301,95.4476
1329547773301,95.1475
1329547833301,95.6509
1329547893301,95.2638
1329547953301,95.2506
1329548013301,95.6998
1329548073301,95.6343
1329548133301,95.4129
1329548193301,95.4978
1329548253301,95.0703
1329548313301,95.4884
1329548373301,95.0477
1329548433312,95.4707
1329548493312,95.6184
1329548553312,95.3420
1329548613312,95.4558
1329548673312,95.3108
1329548733312,95.6275
1329548793312,95.5546
1329548853312,95.4490
1329548913312,95.4540
1329548973312,95.1548
1329549033312,95.7117
1329549093312,95.8450
1329549153312,95.5461
1329549213312,95.4341
1329549273312,95.3433
1329549333312,95.3069
1329549393312,95.5841
1329549453312,95.6393
1329549513312,95.7717
1329549573312,95.4118
1329549633312,95.1663
1329549693312,95.5762
1329549753312,95.4619
1329549813312,95.6287
1329549873312,95.3179
1329549933312,94.9677
1329549993312,95.5951
1329550053312,95.7719
1329550113312,95.6461
1329550173312,95.8057
1329550233312,96.0037
1329550293312,94.9689
1329550353312,95.3660
1329550413312,95.5408
1329550473312,95.8481
1329550533312,95.5360
1329550593312,95.7649
1329550653312,95.3359
1329550713312,95.3130
1329550773312,95.7630
1329550833312,95.5745
1329550893312,95.6862
1329550953312,95.3527
1329551013312,95.2833
1329551073312,95.5031
1329551133312,95.6434
1329551193312,95.4554
1329551253312,95.6604
1329551313312,95.3246
1329551373312,95.1738
1329551433312,95.5893
1329551493312,95.7346
1329551553312,95.7566
1329551613312,95.7402
1329551673312,95.5116
1329551733312,95.8325
1329551793312,95.7149
1329551853312,95.5684
1329551913312,95.7148
1329551973312,95.6393
1329552033323,95.6463
1329552093323,95.4724
1329552153323,95.3847
1329552213323,95.4729
1329552273323,95.4508
1329552333323,95.8075
1329552393323,96.2446
1329552453323,95.5035
1329552513323,95.8713
1329552573323,96.1974
1329552633323,95.4988
1329552693323,95.7618
1329552753323,95.3943
1329552813323,95.1340
1329552873323,95.6445
1329552933323,95.1235
1329552993323,95.6284
1329553053323,95.4868
1329553113323,95.3209
1329553173323,95.4484
1329553233323,95.3791
1329553293323,95.7844
1329553353323,95.4136
1329553413323,95.7490
1329553473323,95.7032
1329553533323,95.1745
1329553593323,95.4054
1329553653323,95.6248
1329553713323,95.7851
1329553773323,95.5707
1329553833323,95.2645
1329553893323,95.6834
1329553953323,94.9579
1329554013323,95.0728
1329554073323,95.1638
1329554133323,95.3007
1329554193323,95.1929
1329554253323,95.4567
1329554313323,95.7204
1329554373323,95.4358
1329554433323,95.0881
1329554493323,95.4669
1329554553323,94.9710
1329554613323,95.4420
1329554673323,95.1855
1329554733323,95.3507
1329554793323,95.4226
1329554853323,95.3599
1329554913323,94.8945
1329554973323,95.1398
1329555033323,94.8743
1329555093323,95.1624
1329555153323,95.6284
1329555213323,94.6096
1329555273323,94.9797
1329555333323,94.8781
1329555393323,94.9197
1329555453323,95.4140
1329555513323,95.3116
1329555573323,94.9635
1329555633335,95.1533
1329555693335,94.7078
1329555753335,94.7453
1329555813335,94.6467
1329555873335,94.7349
1329555933335,94.7213
1329555993335,95.2071
1329556053335,94.9182
1329556113335,94.7882
1329556173335,94.0877
1329556233335,94.3148
1329556293335,94.7470
1329556353335,94.9246
1329556413335,94.5656
1329556473335,94.9809
1329556533335,94.6975
1329556593335,94.6257
1329556653335,94.4358
1329556713335,94.5208
1329556773335,94.6218
1329556833335,94.3608
1329556893335,94.7274
1329556953335,94.8147
1329557013335,94.6317
1329557073335,94.3120
1329557133335,94.9822
1329557193335,94.7544
1329557253335,94.5967
1329557313335,94.3965
1329557373335,94.3807
1329557433335,94.2491
1329557493335,94.3362
1329557553335,94.3117
1329557613335,93.7211
1329557673335,93.9576
1329557733335,94.4696
1329557793335,94.1919
1329557853335,94.1073
1329557913335,94.1623
1329557973335,93.8579
1329558033335,93.9823
1329558093335,93.7126
1329558153335,94.0454
1329558213335,94.2484
1329558273335,94.1516
1329558333335,94.1769
1329558393335,93.5645
1329558453335,93.5494
1329558513335,93.4770
1329558573335,93.8629
1329558633335,93.4567
1329558693335,93.8934
1329558753335,94.0383
1329558813335,93.6213
1329558873335,93.2184
1329558933335,93.4219
1329558993335,93.5347
1329559053335,93.4029
1329559113335,93.2692
1329559173335,93.3658
1329559233347,93.5341
1329559293347,93.4512
1329559353347,93.4176
1329559413347,93.4851
1329559473347,93.9335
1329559533347,93.5264
1329559593347,93.2221
1329559653347,93.5868
1329559713347,93.4854
1329559773347,93.6821
1329559833347,93.3512
1329559893347,93.1222
1329559953347,93.2971
1329560013347,93.4088
1329560073347,93.7234
1329560133347,92.9240
1329560193347,93.0552
1329560253347,93.0332
1329560313347,93.3256
1329560373347,93.5400
1329560433347,93.3594
1329560493347,92.9099
1329560553347,93.1940
1329560613347,93.1416
1329560673347,93.4727
1329560733347,93.3210
1329560793347,93.2043
1329560853347,93.1897
1329560913347,93.5600
1329560973347,93.4192
1329561033347,93.2329
1329561093347,93.2619
1329561153347,93.2580
1329561213347,93.5059
1329561273347,93.4281
1329561333347,92.8545
1329561393347,93.5203
1329561453347,93.1681
1329561513347,93.4380
1329561573347,93.3422
1329561633347,93.5429
1329561693347,93.5077
1329561753347,93.0292
1329561813347,93.1788
1329561873347,93.4761
1329561933347,93.0364
1329561993347,93.1227
1329562053347,93.0619
1329562113347,93.0004
1329562173347,93.3491
1329562233347,93.3122
1329562293347,93.4822
1329562353347,93.4005
1329562413347,93.3343
1329562473347,92.8232
1329562533347,93.1219
1329562593347,92.5280
1329562653347,93.1409
1329562713347,92.7952
1329562773347,93.4568
1329562833358,92.9033
1329562893358,93.5086
1329562953358,93.1652
1329563013358,93.1636
1329563073358,93.3992
1329563133358,93.3345
1329563193358,92.8841
1329563253358,93.0486
1329563313358,93.1207
1329563373358,93.3244
1329563433358,93.4688
1329563493358,92.7532
1329563553358,92.9126
1329563613358,93.0769
1329563673358,93.2964
1329563733358,93.2509
1329563793358,93.0402
1329563853358,93.2617
1329563913358,92.9037
1329563973358,93.1159
1329564033358,92.8668
1329564093358,93.3310
1329564153358,93.3225
1329564213358,92.8322
1329564273358,93.0386
1329564333358,92.8940
1329564393358,93.1953
1329564453358,92.9759
1329564513358,93.1498
1329564573358,93.3110
1329564633358,93.3984
1329564693358,93.1171
1329564753358,93.0527
1329564813358,92.8646
1329564873358,93.0164
1329564933358,93.3467
1329564993358,93.5082
1329565053358,93.1506
1329565113358,92.9119
1329565173358,93.4218
1329565233358,93.6649
1329565293358,93.3316
1329565353358,92.9556
1329565413358,93.0470
1329565473358,93.1872
1329565533358,92.7388
1329565593358,93.3814
1329565653358,93.6243
1329565713358,93.1435
1329565773358,92.7378
1329565833358,92.7333
1329565893358,93.5969
1329565953358,93.4983
1329566013358,93.1784
1329566073358,93.8381
1329566133358,93.1719
1329566193358,93.1196
1329566253358,93.2201
1329566313358,93.5848
1329566373358,93.6645
1329566433370,93.1591
1329566493370,93.0207
1329566553370,93.7039
1329566613370,93.4496
1329566673370,93.4497
1329566733370,93.4965
1329566793370,93.5862
1329566853370,93.0934
1329566913370,93.3128
1329566973370,93.2091
1329567033370,92.9381
1329567093370,93.3285
1329567153370,93.6680
1329567213370,94.0249
1329567273370,93.5824
1329567333370,92.9653
1329567393370,93.2822
1329567453370,93.2199
1329567513370,93.7776
1329567573370,93.2971
1329567633370,93.4395
1329567693370,93.4391
1329567753370,92.7860
1329567813370,92.8563
1329567873370,93.7236
1329567933370,93.2413
1329567993370,93.2250
1329568053370,93.3145
1329568113370,93.4252
1329568173370,93.6883
1329568233370,93.7352
1329568293370,93.7921
1329568353370,93.6139
1329568413370,93.2101
1329568473370,93.3886
1329568533370,93.5001
1329568593370,93.2029
1329568653370,94.0345
1329568713370,93.6394
1329568773370,93.5885
1329568833370,93.7873
1329568893370,93.7725
1329568953370,93.4790
1329569013370,93.4472
1329569073370,93.5574
1329569133370,93.6670
1329569193370,94.0058
1329569253370,93.8332
1329569313370,94.1652
1329569373370,93.9987
1329569433370,93.5718
1329569493370,93.9570
1329569553370,93.5994
1329569613370,93.7644
1329569673370,94.2352
1329569733370,93.6873
1329569793370,93.7706
1329569853370,94.2864
1329569913370,93.7093
1329569973370,94.5015
1329570033382,94.3062
1329570093382,94.6506
1329570153382,94.0481
1329570213382,93.9090
1329570273382,94.0512
1329570333382,94.5822
1329570393382,94.4886
1329570453381,94.5190
1329570513381,94.0278
1329570573381,94.4738
1329570633381,94.2413
1329570693382,94.1677
1329570753382,94.5172
1329570813382,94.4747
1329570873382,94.5397
1329570933382,94.7874
1329570993382,94.9048
1329571053382,94.8114
1329571113382,94.6249
1329571173382,94.6957
1329571233382,94.8069
1329571293382,94.4329
1329571353382,94.4629
1329571413382,94.8861
1329571473382,94.2619
1329571533382,94.7018
1329571593382,94.6041
1329571653382,95.0465
1329571713382,94.9264
1329571773381,94.7737
1329571833381,94.7739
1329571893381,94.6332
1329571953381,94.4140
1329572013382,95.3266
1329572073382,95.2485
1329572133382,94.7989
1329572193382,95.3724
1329572253382,94.8616
1329572313382,94.9646
1329572373382,94.9951
1329572433382,94.9277
1329572493382,95.2804
1329572553382,95.0626
1329572613382,95.2401
1329572673382,95.2683
1329572733382,94.9581
1329572793382,95.2399
1329572853382,95.1158
1329572913382,95.1195
1329572973382,94.7986
1329573033382,95.3042
1329573093382,95.1599
1329573153381,95.5068
1329573213381,95.3794
1329573273381,95.0842
1329573333381,94.8652
1329573393382,95.3924
1329573453382,95.1919
1329573513382,95.4831
1329573573382,94.9753
1329573633393,95.4476
1329573693393,95.2770
1329573753393,95.1752
1329573813393,94.7989
1329573873393,95.5173
1329573933393,95.4165
1329573993393,95.4629
1329574053393,95.5622
1329574113393,95.3362
1329574173393,95.3409
1329574233393,95.3165
1329574293393,95.1868
1329574353393,95.4233
1329574413393,94.9637
1329574473393,95.4701
1329574533393,95.5530
1329574593393,95.1229
1329574653393,95.2836
1329574713393,95.4626
1329574773393,95.3896
1329574833393,95.3934
1329574893393,95.4193
1329574953393,94.8508
1329575013393,95.5249
1329575073393,95.0807
1329575133393,95.2857
1329575193393,95.3836
1329575253393,95.4363
1329575313393,95.1929
1329575373393,95.4857
1329575433393,95.1111
1329575493393,95.2991
1329575553393,95.5733
1329575613393,95.5088
1329575673393,95.0704
1329575733393,95.5951
1329575793393,95.0664
1329575853393,95.4203
1329575913393,95.0879
1329575973393,95.3026
1329576033393,95.4303
1329576093393,95.5323
1329576153393,94.9089
1329576213393,95.3903
1329576273393,95.0506
1329576333393,95.1535
1329576393393,95.5065
1329576453393,95.0810
1329576513393,95.3768
1329576573393,94.9018
1329576633393,95.2951
1329576693393,95.5764
1329576753393,94.9401
1329576813393,94.9354
1329576873393,95.7118
1329576933393,95.2316
1329576993393,95.5045
1329577053393,95.2054
1329577113393,95.4850
1329577173393,95.0170
1329577233405,94.8866
1329577293405,94.8767
1329577353405,94.8104
1329577413405,94.9328
1329577473405,95.2121
1329577533405,95.1871
1329577593405,95.2835
1329577653405,94.8886
1329577713405,94.8132
1329577773405,95.2758
1329577833405,95.3207
1329577893405,94.8039
1329577953405,95.1008
1329578013405,94.8075
1329578073405,94.8252
1329578133405,95.0716
1329578193405,95.2356
1329578253405,95.3299
1329578313405,94.7736
1329578373405,94.7741
1329578433405,94.9686
1329578493405,94.7581
1329578553405,95.0470
1329578613405,94.7833
1329578673405,94.8645
1329578733405,94.9116
1329578793405,95.0296
1329578853405,95.1289
1329578913405,95.0704
1329578973405,95.2346
1329579033405,95.1863
1329579093405,94.6920
1329579153405,94.9178
1329579213405,94.4013
1329579273405,94.8544
1329579333405,94.5563
1329579393405,94.2935
1329579453405,95.1948
1329579513405,94.7437
1329579573405,94.9272
1329579633405,94.6090
1329579693405,95.0992
1329579753405,95.0188
1329579813405,94.8526
1329579873405,94.8445
1329579933405,94.9344
1329579993405,94.2768
1329580053405,94.5517
1329580113405,95.0598
1329580173405,94.8173
1329580233405,94.8808
1329580293405,95.1703
1329580353405,95.2443
1329580413405,94.9955
1329580473405,94.5484
1329580533405,94.4293
1329580593405,94.9416
1329580653405,94.9462
1329580713405,94.7148
1329580773405,94.7215
1329580833416,95.1996
1329580893416,94.7747
1329580953416,94.9244
1329581013416,94.7739
1329581073416,94.9162
1329581133416,95.3590
1329581193416,94.8729
1329581253416,94.7542
1329581313416,95.3109
1329581373416,94.8500
1329581433416,95.6667
1329581493416,95.0049
1329581553416,95.0480
1329581613416,94.6930
1329581673416,94.7515
1329581733416,95.2040
1329581793416,95.1204
1329581853416,95.1561
1329581913416,95.0475
1329581973416,95.2810
1329582033416,95.5889
1329582093416,95.0345
1329582153416,95.1896
1329582213416,95.0341
1329582273416,94.6655
1329582333416,95.0572
1329582393416,94.6572
1329582453416,94.7543
1329582513416,94.7456
1329582573416,94.6789
1329582633416,95.0407
1329582693416,95.3848
1329582753416,94.9204
1329582813416,94.8991
1329582873416,94.9690
1329582933416,95.0394
1329582993416,95.2739
1329583053416,95.1081
1329583113416,95.2310
1329583173416,94.9649
1329583233416,94.8628
1329583293416,94.8946
1329583353416,95.8077
1329583413416,94.8935
1329583473416,95.1855
1329583533416,95.3329
1329583593416,94.9261
1329583653416,94.8600
1329583713416,95.1408
1329583773416,95.1623
1329583833416,95.1626
1329583893416,94.5138
1329583953416,94.8370
1329584013416,94.6733
1329584073416,94.7324
1329584133416,94.7295
1329584193416,95.0052
1329584253416,94.9333
1329584313416,95.0080
1329584373416,95.0613
1329584433427,94.6033
1329584493427,95.3803
1329584553427,95.0601
1329584613427,95.1511
1329584673427,95.0983
1329584733427,94.6228
1329584793427,95.2531
1329584853427,94.6478
1329584913427,94.5809
1329584973427,95.1164
1329585033427,94.8921
1329585093427,94.7871
1329585153427,95.1290
1329585213427,94.9656
1329585273427,94.7402
1329585333427,94.5967
1329585393427,94.7997
1329585453427,95.2254
1329585513427,94.9774
1329585573427,94.8399
1329585633427,94.8217
1329585693427,94.8018
1329585753427,94.9997
1329585813427,94.9367
1329585873427,95.1820
1329585933427,94.5760
1329585993427,94.9641
1329586053427,94.8511
1329586113427,95.3257
1329586173427,94.6748
1329586233427,95.0139
1329586293427,94.9299
1329586353427,94.6198
1329586413427,94.7072
1329586473427,95.1031
1329586533427,95.1239
1329586593427,95.2187
1329586653427,95.0150
1329586713427,95.1292
1329586773427,95.1377
1329586833427,95.0825
1329586893427,94.8305
1329586953427,94.8398
1329587013427,94.5006
1329587073427,94.6979
1329587133427,94.7398
1329587193427,94.3730
1329587253427,94.8533
1329587313427,94.6904
1329587373427,94.9985
1329587433427,94.4106
1329587493427,94.7822
1329587553427,94.8372
1329587613427,94.7897
1329587673427,94.8195
1329587733427,94.8231
1329587793427,95.0303
1329587853427,94.5804
1329587913427,94.9445
1329587973427,94.6841
1329588033438,94.7414
1329588093438,94.8979
1329588153438,94.5993
1329588213438,94.3211
1329588273438,94.3139
1329588333438,94.5768
1329588393438,94.4506
1329588453438,94.8785
1329588513438,94.8189
1329588573438,94.3515